When you browse on this site, cookies collect data to enhance your experience and personalize the content and advertising you see.
Visit our Privacy Policy to learn more. By continuing to use the site, you agree to this use of cookies and data.
  • In Czech Republic
  • List of Countries
  • For 7 days
  • Water Temperature
  • Satellite Maps
  • Weather Map
  • Weather Widgets
  • user-avatar
    Login

    Hourly Weather Modesto

    Today, 20 April, Saturday

    Time Temperature Precipitation Wind Pressure Humidity
    00:00 +15°C° 0 mm 2 mps 756 mmHg 77%
    01:00 +14°C° 0 mm 1 mps 756 mmHg 79%
    02:00 +14°C° 0 mm 1 mps 756 mmHg 80%
    03:00 +14°C° 0 mm 1 mps 756 mmHg 81%
    04:00 +14°C° 0 mm 1 mps 756 mmHg 81%
    05:00 +14°C° 0 mm 1 mps 756 mmHg 79%
    06:00 +15°C° 0 mm 1 mps 757 mmHg 77%
    07:00 +16°C° 0 mm 1 mps 757 mmHg 75%
    08:00 +18°C° 0 mm 1 mps 757 mmHg 71%
    09:00 +19°C° 0 mm 1 mps 757 mmHg 67%
    10:00 +20°C° 0 mm 2 mps 757 mmHg 63%
    11:00 +21°C° 0 mm 2 mps 757 mmHg 58%
    12:00 +22°C° 0 mm 3 mps 757 mmHg 54%
    13:00 +24°C° 0 mm 3 mps 757 mmHg 50%
    14:00 +22°C° 0 mm 4 mps 757 mmHg 49%
    15:00 +22°C° 0 mm 4 mps 757 mmHg 49%
    16:00 +21°C° 0 mm 5 mps 757 mmHg 48%
    17:00 +19°C° 0 mm 4 mps 757 mmHg 53%
    18:00 +17°C° 0 mm 3 mps 758 mmHg 58%
    19:00 +15°C° 0 mm 2 mps 758 mmHg 62%
    20:00 +14°C° 0 mm 2 mps 758 mmHg 67%
    21:00 +13°C° 0 mm 2 mps 759 mmHg 71%
    22:00 +12°C° 0 mm 1 mps 759 mmHg 75%
    23:00 +11°C° 0 mm 1 mps 760 mmHg 77%

    Tomorrow, 21 April, Sunday

    Time Temperature Precipitation Wind Pressure Humidity
    00:00 +11°C° 0 mm 1 mps 760 mmHg 79%
    01:00 +11°C° 0 mm 1 mps 760 mmHg 81%
    02:00 +11°C° 0 mm 1 mps 760 mmHg 82%
    03:00 +9°C° 0 mm 2 mps 760 mmHg 83%
    04:00 +9°C° 0 mm 2 mps 760 mmHg 83%
    05:00 +10°C° 0 mm 2 mps 760 mmHg 81%
    06:00 +12°C° 0 mm 2 mps 761 mmHg 78%
    07:00 +12°C° 0 mm 3 mps 761 mmHg 76%
    08:00 +14°C° 0 mm 4 mps 761 mmHg 72%
    09:00 +17°C° 0 mm 4 mps 761 mmHg 68%
    10:00 +19°C° 0 mm 5 mps 761 mmHg 64%
    11:00 +21°C° 0 mm 5 mps 761 mmHg 57%
    12:00 +22°C° 0 mm 6 mps 760 mmHg 51%
    13:00 +23°C° 0 mm 6 mps 760 mmHg 45%
    14:00 +24°C° 0 mm 6 mps 760 mmHg 42%
    15:00 +25°C° 0 mm 5 mps 760 mmHg 39%
    16:00 +25°C° 0 mm 5 mps 760 mmHg 36%
    17:00 +22°C° 0 mm 4 mps 760 mmHg 42%
    18:00 +20°C° 0 mm 3 mps 760 mmHg 47%
    19:00 +18°C° 0 mm 3 mps 760 mmHg 53%
    20:00 +17°C° 0 mm 2 mps 760 mmHg 57%
    21:00 +16°C° 0 mm 2 mps 761 mmHg 62%
    22:00 +15°C° 0 mm 2 mps 761 mmHg 67%
    23:00 +15°C° 0 mm 2 mps 761 mmHg 68%

    Day after tomorrow, 22 April, Monday

    Time Temperature Precipitation Wind Pressure Humidity
    00:00 +14°C° 0 mm 2 mps 761 mmHg 69%
    01:00 +14°C° 0 mm 2 mps 761 mmHg 70%
    02:00 +14°C° 0 mm 2 mps 761 mmHg 71%
    03:00 +13°C° 0 mm 2 mps 761 mmHg 73%
    04:00 +13°C° 0 mm 2 mps 761 mmHg 75%
    05:00 +13°C° 0 mm 2 mps 761 mmHg 72%
    06:00 +14°C° 0 mm 2 mps 761 mmHg 69%
    07:00 +15°C° 0 mm 2 mps 762 mmHg 65%
    08:00 +17°C° 0 mm 2 mps 762 mmHg 59%
    09:00 +19°C° 0 mm 3 mps 762 mmHg 52%
    10:00 +21°C° 0 mm 3 mps 762 mmHg 45%
    11:00 +22°C° 0 mm 3 mps 761 mmHg 42%
    12:00 +25°C° 0 mm 4 mps 761 mmHg 40%
    13:00 +27°C° 0 mm 4 mps 761 mmHg 37%
    14:00 +27°C° 0 mm 4 mps 760 mmHg 37%
    15:00 +28°C° 0 mm 4 mps 760 mmHg 37%
    16:00 +28°C° 0 mm 4 mps 759 mmHg 37%
    17:00 +26°C° 0 mm 3 mps 759 mmHg 41%
    18:00 +24°C° 0 mm 3 mps 760 mmHg 46%
    19:00 +21°C° 0 mm 2 mps 760 mmHg 51%
    20:00 +20°C° 0 mm 2 mps 760 mmHg 52%
    21:00 +20°C° 0 mm 1 mps 761 mmHg 54%
    22:00 +19°C° 0 mm 1 mps 761 mmHg 56%
    23:00 +18°C° 0 mm 1 mps 761 mmHg 58%

    23 April, Tuesday

    Time Temperature Precipitation Wind Pressure Humidity
    00:00 +18°C° 0 mm 1 mps 760 mmHg 61%
    01:00 +16°C° 0 mm 1 mps 760 mmHg 64%
    02:00 +16°C° 0 mm 1 mps 760 mmHg 66%
    03:00 +15°C° 0 mm 1 mps 760 mmHg 68%
    04:00 +15°C° 0 mm 1 mps 760 mmHg 70%
    05:00 +15°C° 0 mm 0 mps 760 mmHg 67%
    06:00 +16°C° 0 mm 0 mps 760 mmHg 65%
    07:00 +17°C° 0 mm 0 mps 760 mmHg 62%
    08:00 +19°C° 0 mm 0 mps 760 mmHg 57%
    09:00 +21°C° 0 mm 0 mps 760 mmHg 53%
    10:00 +23°C° 0 mm 0 mps 760 mmHg 48%
    11:00 +27°C° 0 mm 1 mps 760 mmHg 44%
    12:00 +28°C° 0 mm 1 mps 759 mmHg 41%
    13:00 +29°C° 0 mm 1 mps 759 mmHg 37%
    14:00 +30°C° 0 mm 1 mps 759 mmHg 36%
    15:00 +30°C° 0 mm 2 mps 758 mmHg 36%
    16:00 +30°C° 0 mm 2 mps 758 mmHg 35%
    17:00 +28°C° 0 mm 1 mps 758 mmHg 40%
    18:00 +25°C° 0 mm 1 mps 758 mmHg 45%
    19:00 +21°C° 0 mm 0 mps 759 mmHg 49%
    20:00 +20°C° 0 mm 0 mps 759 mmHg 51%
    21:00 +22°C° 0 mm 1 mps 759 mmHg 53%
    22:00 +21°C° 0 mm 1 mps 760 mmHg 56%
    23:00 +21°C° 0 mm 1 mps 759 mmHg 58%

    24 April, Wednesday

    Time Temperature Precipitation Wind Pressure Humidity
    00:00 +20°C° 0 mm 1 mps 759 mmHg 60%
    01:00 +20°C° 0 mm 1 mps 759 mmHg 63%
    02:00 +20°C° 0 mm 1 mps 759 mmHg 64%
    03:00 +19°C° 0 mm 1 mps 759 mmHg 66%
    04:00 +19°C° 0 mm 1 mps 759 mmHg 67%
    05:00 +20°C° 0 mm 1 mps 759 mmHg 65%
    06:00 +21°C° 0 mm 1 mps 760 mmHg 63%
    07:00 +22°C° 0 mm 1 mps 760 mmHg 62%
    08:00 +24°C° 0 mm 1 mps 760 mmHg 56%
    09:00 +26°C° 0 mm 1 mps 760 mmHg 51%
    10:00 +28°C° 0 mm 1 mps 760 mmHg 46%
    11:00 +30°C° 0 mm 1 mps 759 mmHg 43%
    12:00 +31°C° 0 mm 1 mps 759 mmHg 40%
    13:00 +32°C° 0 mm 1 mps 758 mmHg 37%
    14:00 +32°C° 0 mm 1 mps 758 mmHg 38%
    15:00 +32°C° 0 mm 1 mps 758 mmHg 38%
    16:00 +32°C° 0 mm 2 mps 757 mmHg 39%
    17:00 +30°C° 0 mm 1 mps 757 mmHg 45%
    18:00 +28°C° 0 mm 1 mps 757 mmHg 51%
    19:00 +26°C° 0 mm 1 mps 758 mmHg 57%
    20:00 +25°C° 0 mm 1 mps 758 mmHg 59%
    21:00 +24°C° 0 mm 1 mps 758 mmHg 62%
    22:00 +24°C° 0 mm 1 mps 758 mmHg 64%
    23:00 +23°C° 0 mm 1 mps 758 mmHg 66%

    25 April, Thursday

    Time Temperature Precipitation Wind Pressure Humidity
    00:00 +22°C° 0 mm 1 mps 758 mmHg 68%
    01:00 +20°C° 0 mm 0 mps 758 mmHg 70%
    02:00 +19°C° 0 mm 0 mps 758 mmHg 71%
    03:00 +19°C° 0 mm 0 mps 758 mmHg 72%
    04:00 +19°C° 0 mm 0 mps 758 mmHg 73%
    05:00 +20°C° 0 mm 0 mps 758 mmHg 70%
    06:00 +21°C° 0 mm 0 mps 758 mmHg 68%
    07:00 +22°C° 0 mm 0 mps 758 mmHg 65%
    08:00 +24°C° 0 mm 0 mps 758 mmHg 60%
    09:00 +28°C° 0 mm 1 mps 758 mmHg 55%
    10:00 +30°C° 0 mm 1 mps 758 mmHg 51%
    11:00 +31°C° 0 mm 1 mps 758 mmHg 47%
    12:00 +32°C° 0 mm 1 mps 757 mmHg 43%
    13:00 +34°C° 0 mm 1 mps 757 mmHg 39%
    14:00 +34°C° 0 mm 1 mps 756 mmHg 39%
    15:00 +34°C° 0 mm 1 mps 756 mmHg 38%
    16:00 +34°C° 0 mm 1 mps 756 mmHg 37%
    17:00 +32°C° 0 mm 1 mps 756 mmHg 42%
    18:00 +30°C° 0 mm 2 mps 756 mmHg 48%
    19:00 +28°C° 0 mm 2 mps 757 mmHg 53%
    20:00 +26°C° 0.3 mm 2 mps 757 mmHg 57%
    21:00 +25°C° 0.3 mm 2 mps 757 mmHg 60%
    22:00 +23°C° 0.3 mm 2 mps 758 mmHg 64%
    23:00 +22°C° 0.3 mm 1 mps 757 mmHg 65%
    Show more